Location: Newark
(47.5833°N, 8.1500°E)
Time: 17:04:58
(UTC+00:00)

Transit 2A - Pass Details

Date: 05 November 2020
Orbit: 595 x 964 km, 66.7° (Epoch: 01 December)

Event Time Altitude Azimuth Distance (km) Brightness Sun altitude
Rises 05:45:20 0° 327° (NNW) 3,495 8.9 -6.0°
Reaches altitude 10° 05:48:17 10° 338° (NNW) 2,495 8.3 -5.5°
Maximum altitude 05:53:15 29° 38° (NE) 1,427 7.7 -4.7°
Drops below altitude 10° 05:57:47 10° 99° (E) 2,265 10.2 -4.0°
Sets 06:00:19 0° 110° (ESE) 3,122 12.6 -3.6°
